Location: Lake Hudson State Recreational Area
(41.8372°N, 84.2445°W)
Time: 19:56:28
(UTC-05:00)

Hubble Space Telescope - Visible Passes

Search period start: 22 February 2018 00:00
Search period end: 04 March 2018 00:00
Orbit: 537 x 541 km, 28.5° (Epoch: 21 February)

Date Brightness Start Highest point End Pass type
(mag) Time Alt. Az. Time Alt. Az. Time Alt. Az.
22 Feb 3.4 05:22:37 10° S 05:22:56 10° S 05:23:44 10° SSE visible
23 Feb 3.4 05:12:57 11° SSE 05:12:57 11° SSE 05:13:53 10° SSE visible
23 Feb 3.2 06:51:17 10° SSW 06:52:54 12° S 06:54:32 10° SSE visible
24 Feb 3.4 05:03:15 11° SSE 05:03:15 11° SSE 05:03:44 10° SSE visible
24 Feb 3.2 06:41:10 10° SSW 06:42:29 11° S 06:43:48 10° S visible
25 Feb 3.3 06:31:24 10° SSW 06:32:04 10° S 06:32:44 10° S visible
